Location: Coed Ely
(51.5661°N, 3.4150°W)
Time: 02:31:54
(UTC+00:00)

Iridium 4 Rocket - Pass Details

Date: 28 January 2021
Orbit: 583 x 906 km, 86.9° (Epoch: 28 February)

Event Time Altitude Azimuth Distance (km) Brightness Sun altitude
Rises 17:51:14 0° 360° (N) 3,423 6.7 -8.7°
Reaches altitude 10° 17:53:52 10° 7° (N) 2,439 5.9 -9.1°
Maximum altitude 17:59:03 42° 78° (ENE) 1,108 3.9 -9.8°
Drops below altitude 10° 18:03:46 10° 149° (SSE) 2,223 5.7 -10.5°
Sets 18:06:04 0° 156° (SSE) 3,087 6.6 -10.9°
